Linden, NJ

12:35 PM EST on January 24, 2017 (GMT -0500)
Linden

Weather History for KLDJ - May, 2014

Change the Weather History Date:

Monday, May 26, 2014

  Actual Average (KEWR) Record (KEWR)
Temperature  
Mean Temperature 75 °F -  
Max Temperature 86 °F 74 °F 96 °F (1965)
Min Temperature 64 °F 57 °F 44 °F (1967)
Cooling Degree Days 10    
Growing Degree Days 25 (Base 50)    
Moisture  
Dew Point 50 °F    
Average Humidity 41    
Maximum Humidity 58    
Minimum Humidity 26    
Precipitation  
Precipitation 0.00 in - - ()
Sea Level Pressure  
Sea Level Pressure 30.01 in    
Wind  
Wind Speed 5 mph (West)    
Max Wind Speed 17 mph    
Max Gust Speed 22 mph    
Visibility 10 miles    
Events      
Averages and records for this station are not official NWS values.
T = Trace of Precipitation, MM = Missing Value Source: NWS Daily Summary

Daily Weather History Graph

Daily Weather History Graph

Search for Another Location

Airport or City:

Trip Planner

Search our weather history database for the weather conditions in past years. The results will help you decide how hot, cold, wet, or windy it might be!

Date:

Astronomy

May. 26, 2014 Rise Set
Actual Time 5:31 AM EDT 8:16 PM EDT
Civil Twilight 4:59 AM EDT 8:49 PM EDT
Nautical Twilight 4:19 AM EDT 9:29 PM EDT
Astronomical Twilight 3:33 AM EDT 10:15 PM EDT
Moon 4:12 AM EDT (5/26) 6:16 PM EDT (5/26)
Length of Visible Light 15h 49m
Length of Day
14h 45m
Waning Crescent, 5% of the Moon is Illuminated
May 26
Waning Crescent
May 28
New
Jun 5
First Quarter
Jun 13
Full
Jun 19
Last Quarter

Hourly Weather History & Observations

Time (EDT) Temp. Dew Point Humidity Pressure Visibility Wind Dir Wind Speed Gust Speed Precip Events Conditions
12:15 AM 67.8 °F 49.3 °F 51% 30.08 in 10.0 mi Calm Calm - N/A   Clear
12:35 AM 67.1 °F 49.5 °F 53% 30.08 in 10.0 mi Calm Calm - N/A   Clear
12:55 AM 67.1 °F 49.3 °F 53% 30.07 in 10.0 mi Calm Calm - N/A   Clear
1:15 AM 66.2 °F 49.6 °F 55% 30.07 in 10.0 mi Calm Calm - N/A   Clear
1:35 AM 65.1 °F 49.1 °F 56% 30.07 in 10.0 mi Calm Calm - N/A   Clear
1:55 AM 64.4 °F 48.7 °F 57% 30.07 in 10.0 mi Calm Calm - N/A   Clear
2:15 AM 64.8 °F 48.7 °F 56% 30.07 in 10.0 mi Calm Calm - N/A   Clear
2:35 AM 64.9 °F 49.1 °F 56% 30.07 in 10.0 mi Calm Calm - N/A   Clear
2:55 AM 64.6 °F 48.9 °F 57% 30.07 in 10.0 mi Calm Calm - N/A   Clear
3:15 AM 64.0 °F 49.1 °F 58% 30.06 in 10.0 mi West 3.5 mph - N/A   Clear
3:35 AM 64.4 °F 48.9 °F 57% 30.06 in 10.0 mi West 3.5 mph - N/A   Clear
3:55 AM 64.6 °F 48.6 °F 56% 30.06 in 10.0 mi West 3.5 mph - N/A   Clear
4:15 AM 64.9 °F 48.2 °F 55% 30.06 in 10.0 mi West 3.5 mph - N/A   Clear
4:35 AM 65.5 °F 47.8 °F 53% 30.06 in 10.0 mi West 5.8 mph - N/A   Clear
4:55 AM 65.7 °F 47.5 °F 52% 30.07 in 10.0 mi West 5.8 mph - N/A   Clear
5:15 AM 65.3 °F 47.5 °F 52% 30.07 in 10.0 mi West 5.8 mph - N/A   Clear
5:35 AM 65.8 °F 47.3 °F 51% 30.07 in 10.0 mi West 5.8 mph - N/A   Clear
6:35 AM 66.9 °F 47.8 °F 50% 30.07 in 10.0 mi West 6.9 mph - N/A   Scattered Clouds
7:15 AM 67.6 °F 48.9 °F 51% 30.08 in 10.0 mi West 6.9 mph - N/A   Overcast
7:35 AM 68.0 °F 49.6 °F 52% 30.08 in 10.0 mi West 8.1 mph - N/A   Scattered Clouds
7:55 AM 68.9 °F 49.8 °F 51% 30.08 in 10.0 mi West 9.2 mph 16.1 mph N/A   Clear
8:15 AM 69.1 °F 50.2 °F 51% 30.08 in 10.0 mi West 8.1 mph - N/A   Clear
8:35 AM 70.0 °F 50.7 °F 50% 30.08 in 10.0 mi West 9.2 mph - N/A   Clear
8:55 AM 71.6 °F 51.4 °F 49% 30.08 in 10.0 mi WNW 9.2 mph - N/A   Clear
9:15 AM 72.9 °F 51.3 °F 47% 30.07 in 10.0 mi West 9.2 mph - N/A   Clear
9:35 AM 74.7 °F 51.4 °F 44% 30.07 in 10.0 mi West 9.2 mph - N/A   Clear
9:55 AM 76.8 °F 51.3 °F 41% 30.07 in 10.0 mi West 8.1 mph - N/A   Clear
10:15 AM 78.1 °F 51.6 °F 40% 30.07 in 10.0 mi West 10.4 mph - N/A   Clear
10:35 AM 78.8 °F 53.6 °F 42% 30.07 in 10.0 mi West 9.2 mph - N/A   Clear
10:55 AM 79.7 °F 51.4 °F 37% 30.07 in 10.0 mi West 6.9 mph - N/A   Clear
11:15 AM 80.6 °F 51.3 °F 36% 30.06 in 10.0 mi WNW 12.7 mph - N/A   Clear
11:35 AM 81.3 °F 52.0 °F 36% 30.05 in 10.0 mi West 11.5 mph 16.1 mph N/A   Clear
11:55 AM 82.8 °F 52.7 °F 35% 30.04 in 10.0 mi WNW 9.2 mph 17.3 mph N/A   Clear
12:15 PM 83.7 °F 50.2 °F 31% 30.04 in 10.0 mi West 13.8 mph 20.7 mph N/A   Clear
12:55 PM 84.9 °F 47.3 °F 27% 30.02 in 10.0 mi West 12.7 mph 19.6 mph N/A   Clear
1:15 PM 84.7 °F 46.6 °F 26% 30.01 in 10.0 mi West 11.5 mph 20.7 mph N/A   Clear
1:35 PM 85.3 °F 47.7 °F 27% 30.00 in 10.0 mi West 13.8 mph 18.4 mph N/A   Clear
1:55 PM 85.5 °F 50.0 °F 29% 29.99 in 10.0 mi WNW 11.5 mph 17.3 mph N/A   Clear
2:15 PM 85.5 °F 47.7 °F 27% 29.99 in 10.0 mi West 9.2 mph 19.6 mph N/A   Clear
2:35 PM 86.2 °F 49.8 °F 28% 29.98 in 10.0 mi West 10.4 mph 20.7 mph N/A   Clear
2:55 PM 86.2 °F 49.6 °F 28% 29.97 in 10.0 mi West 10.4 mph 16.1 mph N/A   Clear
3:15 PM 86.9 °F 49.1 °F 27% 29.96 in 10.0 mi West 16.1 mph 21.9 mph N/A   Clear
3:35 PM 86.9 °F 50.0 °F 28% 29.96 in 10.0 mi West 11.5 mph 18.4 mph N/A   Clear
3:55 PM 86.9 °F 49.6 °F 28% 29.95 in 10.0 mi WNW 12.7 mph 19.6 mph N/A   Clear
4:15 PM 86.9 °F 49.6 °F 28% 29.95 in 10.0 mi WNW 17.3 mph 20.7 mph N/A   Clear
4:35 PM 86.9 °F 50.4 °F 28% 29.94 in 10.0 mi West 11.5 mph 19.6 mph N/A   Clear
4:55 PM 86.9 °F 50.2 °F 28% 29.94 in 10.0 mi WNW 13.8 mph 18.4 mph N/A   Clear
5:15 PM 86.5 °F 49.6 °F 28% 29.93 in 10.0 mi West 9.2 mph - N/A   Clear
5:35 PM 86.5 °F 50.4 °F 29% 29.93 in 10.0 mi West 12.7 mph 19.6 mph N/A   Clear
5:55 PM 86.5 °F 50.0 °F 28% 29.92 in 10.0 mi West 11.5 mph 17.3 mph N/A   Clear
6:15 PM 86.5 °F 50.7 °F 29% 29.92 in 10.0 mi West 11.5 mph - N/A   Clear
6:35 PM 86.0 °F 51.8 °F 31% 29.92 in 10.0 mi West 6.9 mph 17.3 mph N/A   Clear
7:15 PM 85.3 °F 50.9 °F 30% 29.92 in 10.0 mi West 10.4 mph 16.1 mph N/A   Clear
7:35 PM 84.4 °F 50.7 °F 31% 29.92 in 10.0 mi West 11.5 mph 17.3 mph N/A   Clear
7:55 PM 84.0 °F 50.4 °F 31% 29.92 in 10.0 mi West 8.1 mph - N/A   Clear
8:15 PM 83.1 °F 50.9 °F 33% 29.92 in 10.0 mi West 6.9 mph - N/A   Clear
8:35 PM 82.0 °F 51.6 °F 35% 29.93 in 10.0 mi West 4.6 mph - N/A   Clear
8:55 PM 81.3 °F 51.8 °F 36% 29.92 in 10.0 mi West 5.8 mph - N/A   Clear
9:55 PM 79.5 °F 52.0 °F 38% 29.93 in 10.0 mi West 5.8 mph - N/A   Clear
10:15 PM 79.0 °F 52.3 °F 39% 29.94 in 10.0 mi West 6.9 mph - N/A   Clear
10:35 PM 78.8 °F 52.5 °F 40% 29.94 in 10.0 mi West 6.9 mph - N/A   Clear
10:55 PM 78.8 °F 52.7 °F 40% 29.94 in 10.0 mi West 6.9 mph - N/A   Clear
11:15 PM 78.3 °F 52.9 °F 41% 29.93 in 10.0 mi West 8.1 mph - N/A   Clear
11:35 PM 77.7 °F 53.6 °F 43% 29.93 in 10.0 mi West 6.9 mph - N/A   Clear
11:55 PM 77.2 °F 53.6 °F 44% 29.93 in 10.0 mi West 8.1 mph - N/A   Clear